| time (UTC) | temp C | wind direction | speed KPH | gust KPH | rain 1hr cm | rain 24hr cm | rain mn cm | humidity % | barometer mb |
| 20260504081531 | 17 | 339 | 4.8 | 17.7 | 0.00 | 0.00 | 0.00 | 62 | 1014.1 |
| 20260504044533 | 20 | 333 | 4.8 | 11.3 | 0.00 | 0.00 | 0.00 | 54 | 1015.9 |
| 20260504043031 | 20 | 327 | 3.2 | 9.7 | 0.00 | 0.00 | 0.00 | 54 | 1016.0 |
| 20260504041534 | 19 | 336 | 3.2 | 8.0 | 0.00 | 0.00 | 0.00 | 54 | 1016.0 |
| 20260504040034 | 19 | 333 | 3.2 | 6.4 | 0.00 | 0.00 | 0.00 | 54 | 1016.1 |
| 20260504034532 | 20 | 328 | 1.6 | 6.4 | 0.00 | 0.00 | 0.00 | 54 | 1016.0 |
| 20260504033030 | 20 | 306 | 1.6 | 6.4 | 0.00 | 0.00 | 0.00 | 53 | 1016.0 |
| 20260504031530 | 20 | 288 | 1.6 | 11.3 | 0.00 | 0.00 | 0.00 | 51 | 1016.0 |
| 20260504030029 | 21 | 292 | 3.2 | 8.0 | 0.00 | 0.00 | 0.00 | 50 | 1015.9 |
| 20260504024531 | 21 | 326 | 3.2 | 8.0 | 0.00 | 0.00 | 0.00 | 49 | 1015.8 |
| 20260504023031 | 21 | 300 | 3.2 | 6.4 | 0.00 | 0.00 | 0.00 | 48 | 1015.8 |
| 20260504021530 | 21 | 319 | 3.2 | 12.9 | 0.00 | 0.00 | 0.00 | 47 | 1015.8 |
| 20260504020031 | 22 | 300 | 4.8 | 11.3 | 0.00 | 0.00 | 0.00 | 45 | 1015.6 |
| 20260504014534 | 22 | 286 | 4.8 | 11.3 | 0.00 | 0.00 | 0.00 | 44 | 1015.8 |
| 20260504013039 | 22 | 319 | 4.8 | 14.5 | 0.00 | 0.00 | 0.00 | 43 | 1015.6 |
| 20260504011530 | 23 | 313 | 3.2 | 14.5 | 0.00 | 0.00 | 0.00 | 41 | 1015.5 |
| 20260504010028 | 23 | 300 | 4.8 | 14.5 | 0.00 | 0.00 | 0.00 | 40 | 1015.4 |
| 20260504004529 | 24 | 338 | 4.8 | 19.3 | 0.00 | 0.00 | 0.00 | 38 | 1015.5 |
| 20260504003033 | 24 | 313 | 8.0 | 20.9 | 0.00 | 0.00 | 0.00 | 38 | 1015.4 |
| 20260504001537 | 25 | 315 | 8.0 | 22.5 | 0.00 | 0.00 | 0.00 | 38 | 1015.4 |
| 20260504000032 | 25 | 329 | 9.7 | 20.9 | 0.00 | 0.00 | 0.00 | 37 | 1015.7 |
| 20260503234534 | 25 | 325 | 9.7 | 25.7 | 0.00 | 0.00 | 0.00 | 37 | 1015.7 |
| 20260503233037 | 25 | 344 | 6.4 | 19.3 | 0.00 | 0.00 | 0.00 | 38 | 1015.7 |
| 20260503231534 | 26 | 344 | 9.7 | 19.3 | 0.00 | 0.00 | 0.00 | 37 | 1015.8 |
| 20260503230031 | 26 | 5 | 8.0 | 19.3 | 0.00 | 0.00 | 0.00 | 32 | 1015.8 |
| 20260503224529 | 26 | 11 | 6.4 | 22.5 | 0.00 | 0.00 | 0.00 | 35 | 1015.9 |
| 20260503223032 | 26 | 360 | 6.4 | 17.7 | 0.00 | 0.00 | 0.00 | 33 | 1016.0 |
| 20260503221535 | 27 | 337 | 6.4 | 25.7 | 0.00 | 0.00 | 0.00 | 33 | 1016.1 |
| 20260503220029 | 27 | 339 | 9.7 | 20.9 | 0.00 | 0.00 | 0.00 | 32 | 1016.2 |
| 20260503214528 | 27 | 346 | 11.3 | 22.5 | 0.00 | 0.00 | 0.00 | 33 | 1016.4 |
| 20260503213033 | 27 | 10 | 11.3 | 24.1 | 0.00 | 0.00 | 0.00 | 32 | 1016.6 |
| 20260503211532 | 27 | 9 | 9.7 | 22.5 | 0.00 | 0.00 | 0.00 | 31 | 1016.8 |
| 20260503210029 | 27 | 307 | 8.0 | 20.9 | 0.00 | 0.00 | 0.00 | 33 | 1017.0 |
| 20260503204530 | 27 | 322 | 9.7 | 25.7 | 0.00 | 0.00 | 0.00 | 32 | 1017.4 |
| 20260503203036 | 27 | 22 | 9.7 | 22.5 | 0.00 | 0.00 | 0.00 | 32 | 1017.7 |
| 20260503201530 | 27 | 360 | 8.0 | 16.1 | 0.00 | 0.00 | 0.00 | 31 | 1018.0 |
| 20260503200031 | 27 | 17 | 3.2 | 24.1 | 0.00 | 0.00 | 0.00 | 33 | 1018.2 |
| 20260503194531 | 27 | 347 | 8.0 | 22.5 | 0.00 | 0.00 | 0.00 | 32 | 1018.6 |
| 20260503193031 | 27 | 5 | 11.3 | 27.4 | 0.00 | 0.00 | 0.00 | 35 | 1018.7 |
| 20260503191533 | 27 | 348 | 6.4 | 24.1 | 0.00 | 0.00 | 0.00 | 34 | 1018.8 |
| 20260503190028 | 27 | 340 | 8.0 | 25.7 | 0.00 | 0.00 | 0.00 | 34 | 1019.1 |
| 20260503184528 | 27 | 318 | 6.4 | 17.7 | 0.00 | 0.00 | 0.00 | 36 | 1019.2 |
| 20260503183031 | 26 | 58 | 11.3 | 24.1 | 0.00 | 0.00 | 0.00 | 35 | 1019.5 |
| 20260503181530 | 27 | 350 | 4.8 | 20.9 | 0.00 | 0.00 | 0.00 | 39 | 1019.7 |
| 20260503180030 | 26 | 28 | 8.0 | 22.5 | 0.00 | 0.00 | 0.00 | 38 | 1020.1 |
| 20260503174530 | 26 | 321 | 6.4 | 19.3 | 0.00 | 0.00 | 0.00 | 41 | 1020.3 |
| 20260503173031 | 26 | 340 | 8.0 | 20.9 | 0.00 | 0.00 | 0.00 | 44 | 1020.6 |
| 20260503171530 | 25 | 38 | 8.0 | 22.5 | 0.00 | 0.00 | 0.00 | 43 | 1020.8 |